Location: Unspecified
(0.0000°N, 0.0000°E)
Time: 00:50:14
(UTC+00:00)

QIANFAN-31 - Pass Details

Date: 07 March 2026
Orbit: 1037 x 1049 km, 89.0° (Epoch: 14 April)

Event Time Altitude Azimuth Distance (km) Brightness Sun altitude
Rises 18:43:56 0° 207° (SSW) 3,817 ? -8.2°
Reaches altitude 10° 18:47:18 10° 224° (SW) 2,861 ? -9.1°
Maximum altitude 18:51:40 19° 266° (W) 2,264 ? -10.1°
Drops below altitude 10° 18:56:03 10° 309° (NW) 2,851 ? -11.2°
Sets 18:59:26 0° 327° (NNW) 3,800 ? -12.1°
